Left ArrowRight Arrow

33.98154, -81.23621

Hourly Observations for June 23, 2024

Temp ( °F °C ) Dew Point ( °F °C ) Humidity (%) Winds ( mph kmh ) Pressure ( in mb ) Visibility ( mi km ) Precip ( " mm )
12:56 am 00:56 Mostly Clear 79 26.1 73 22.8 82 82 SSE 7 11 30.00 1016 10 16 0.00 0.00
1:56 am 01:56 Clear 78 25.6 73 22.8 85 85 SSE 6 9 30.00 1016 10 16 0.00 0.00
2:56 am 02:56 Mostly Clear 77 25 73 22.8 88 88 SE 5 7 29.98 1015 10 16 0.00 0.00
3:37 am 03:37 Mostly Cloudy 76 24.4 74 23.3 94 94 Calm 29.97 1015 10 16 0.00 0.00
3:56 am 03:56 Partly Cloudy 76 24.4 74 23.3 94 94 ESE 5 7 29.96 1015 10 16 0.00 0.00
4:56 am 04:56 Mostly Cloudy 76 24.4 74 23.3 94 94 ESE 5 7 29.96 1015 10 16 0.00 0.00
5:06 am 05:06 Cloudy 76 24.4 74 23.3 94 94 SE 5 7 29.96 1015 10 16 0.00 0.00
5:56 am 05:56 Cloudy 76 24.4 75 23.9 97 97 ESE 6 9 29.96 1015 10 16 0.00 0.00
6:23 am 06:23 Cloudy with Mist and Fog 75 23.9 75 23.9 100 100 ESE 5 7 29.96 1015 2 2 0.00 0.00
6:56 am 06:56 Cloudy with Mist and Fog 75 23.9 75 23.9 100 100 E 3 6 29.96 1015 2 2 0.00 0.00
7:56 am 07:56 Cloudy with Mist and Fog 76 24.4 75 23.9 97 97 Calm 29.97 1015 2 2 0.00 0.00
8:10 am 08:10 Cloudy with Mist and Fog 76 24.4 75 23.9 97 97 Calm 29.97 1015 2 2 0.00 0.00
8:56 am 08:56 Mostly Cloudy 80 26.7 75 23.9 85 85 NNE 3 6 29.97 1015 2 2 0.00 0.00
9:05 am 09:05 Mostly Cloudy 79 26.1 75 23.9 88 88 Calm 29.96 1015 10 16 0.00 0.00
9:43 am 09:43 Mostly Cloudy 81 27.2 75 23.9 82 82 S 3 6 29.96 1015 10 16 0.00 0.00
9:56 am 09:56 Mostly Cloudy 82 27.8 75 23.9 79 79 Calm 29.96 1014 10 16 0.00 0.00
10:41 am 10:41 Mostly Cloudy 85 29.4 74 23.3 70 70 Calm 29.95 1014 10 16 0.00 0.00
10:56 am 10:56 Mostly Cloudy 84 28.9 74 23.3 72 72 Calm 29.95 1014 10 16 0.00 0.00
11:56 am 11:56 Mostly Cloudy 89 31.7 74 23.3 61 61 Calm 29.94 1014 10 16 0.00 0.00
12:29 pm 12:29 Mostly Cloudy 90 32.2 73 22.8 58 58 VRB 6 9 29.94 1014 10 16 0.00 0.00
12:56 pm 12:56 Mostly Cloudy 91 32.8 73 22.8 56 56 VRB 5 7 29.92 1013 10 16 0.00 0.00
1:56 pm 13:56 Mostly Cloudy 94 34.4 72 22.2 49 49 WSW 5 7 29.90 1013 10 16 0.00 0.00
2:56 pm 14:56 Partly Cloudy 96 35.6 71 21.7 45 45 WNW 8 13 29.87 1012 10 16 0.00 0.00
3:56 pm 15:56 Partly Cloudy 98 36.7 69 20.6 39 39 W 6 9 29.84 1011 10 16 0.00 0.00
4:56 pm 16:56 Partly Cloudy 98 36.7 69 20.6 39 39 VRB 6 9 29.81 1010 10 16 0.00 0.00
5:56 pm 17:56 Mostly Cloudy 97 36.1 70 21.1 42 42 S 3 6 29.80 1009 10 16 0.00 0.00
6:56 pm 18:56 Mostly Cloudy 96 35.6 69 20.6 42 42 SSW 7 11 29.79 1009 10 16 0.00 0.00
7:56 pm 19:56 Partly Cloudy 94 34.4 66 18.9 40 40 SW 5 7 29.80 1009 10 16 0.00 0.00
8:56 pm 20:56 Mostly Cloudy 90 32.2 68 20 49 49 SSW 10 17 29.81 1009 10 16 0.00 0.00
9:56 pm 21:56 Mostly Cloudy 87 30.6 71 21.7 59 59 SW 6 9 29.82 1010 10 16 0.00 0.00
10:56 pm 22:56 Partly Cloudy 84 28.9 71 21.7 65 65 SW 6 9 29.83 1010 10 16 0.00 0.00
11:56 pm 23:56 Partly Cloudy 83 28.3 71 21.7 67 67 SSW 6 9 29.83 1010 10 16 0.00 0.00

Powered by Vaisala Xweather